Date String (YYYY-MM-DD hh:mm:ss) UTC,Instrument flags,Ambient pressure (hPa),Sample flow (lpm),Bypass flow (lpm),Sample temperature (°C),Ambient temperature (°C),ASC tube jacket temperature (°C),LED temperature (°C),Box temperature (°C),Sample RH (%),Span deviation,Mass concentration (μg/m³),Mass concentration (μg/m³),Mass concentration (μg/m³)
DateTimeUTC,F1_M11,P_M11,Q1_M11,Q2_M11,T1_M11,T2_M11,T3_M11,T4_M11,T5_M11,U1_M11,ZSPAN_M11,X2_M11,X0_M11,X1_M11
2022-07-17 11:00:00,,0830.4,5.01,0.00,29.9,28.7,00.0,38.6,31.8,23.6,0000.0,0006.24,0011.88,0005.44
2022-07-17 11:01:00,,0830.4,4.99,0.00,29.9,28.8,00.0,38.6,31.8,23.7,0000.0,0006.24,0012.50,0005.44
2022-07-17 11:02:00,,0830.4,5.01,0.00,29.9,28.8,00.0,38.6,31.9,23.7,0000.0,0006.27,0012.77,0005.44
2022-07-17 11:03:00,,0830.4,4.99,0.00,29.9,28.8,00.0,38.7,31.9,23.7,0000.0,0006.28,0011.78,0005.44
2022-07-17 11:04:00,,0830.5,5.01,0.00,29.9,28.9,00.0,38.7,31.9,23.6,0000.0,0006.25,0011.40,0005.44
2022-07-17 11:05:00,,0830.4,4.99,0.00,30.0,28.9,00.0,38.7,31.9,23.6,0000.0,0006.24,0011.43,0005.44
2022-07-17 11:06:00,,0830.5,5.01,0.00,30.0,28.9,00.0,38.7,31.9,23.7,0000.0,0006.26,0011.38,0005.45
2022-07-17 11:07:00,,0830.4,4.99,0.00,30.0,28.9,00.0,38.7,32.0,23.6,0000.0,0006.29,0011.47,0005.46
2022-07-17 11:08:00,,0830.4,5.01,0.00,30.0,29.0,00.0,38.7,32.0,23.4,0000.0,0006.34,0011.89,0005.47
2022-07-17 11:09:00,,0830.4,5.01,0.00,30.1,28.7,00.0,38.7,32.0,23.2,0000.0,0006.33,0011.87,0005.47
2022-07-17 11:10:00,,0830.4,5.00,0.00,30.0,27.9,00.0,38.7,31.9,23.2,0000.0,0006.31,0011.46,0005.46
2022-07-17 11:11:00,,0830.4,5.00,0.00,30.0,27.4,00.0,38.6,31.7,23.4,0000.0,0006.31,0011.29,0005.45
2022-07-17 11:12:00,,0830.4,5.00,0.00,29.9,27.4,00.0,38.6,31.6,23.5,0000.0,0006.31,0010.65,0005.44
2022-07-17 11:13:00,,0830.4,4.99,0.00,29.8,27.5,00.0,38.6,31.5,23.8,0000.0,0006.26,0010.33,0005.42
2022-07-17 11:14:00,,0830.5,5.00,0.00,29.8,27.6,00.0,38.6,31.5,23.8,0000.0,0006.16,0010.02,0005.40
2022-07-17 11:15:00,,0830.4,5.00,0.00,29.7,27.7,00.0,38.6,31.5,23.8,0000.0,0006.15,0009.99,0005.40
2022-07-17 11:16:00,,0830.4,5.00,0.00,29.7,27.8,00.0,38.6,31.5,24.1,0000.0,0006.14,0009.93,0005.38
2022-07-17 11:17:00,,0830.4,5.00,0.00,29.7,28.0,00.0,38.5,31.5,24.2,0000.0,0006.12,0009.91,0005.36
2022-07-17 11:18:00,,0830.4,5.00,0.00,29.7,28.1,00.0,38.5,31.5,24.3,0000.0,0006.13,0010.20,0005.34
2022-07-17 11:19:00,,0830.4,4.99,0.00,29.7,28.2,00.0,38.5,31.5,24.1,0000.0,0006.09,0010.18,0005.32
2022-07-17 11:20:00,,0830.4,5.00,0.00,29.7,28.2,00.0,38.5,31.6,24.1,0000.0,0006.11,0010.27,0005.30
2022-07-17 11:21:00,,0830.4,4.99,0.00,29.7,28.3,00.0,38.5,31.6,24.3,0000.0,0006.15,0010.41,0005.30
2022-07-17 11:22:00,,0830.4,5.01,0.00,29.7,28.4,00.0,38.5,31.6,24.2,0000.0,0006.14,0010.54,0005.29
2022-07-17 11:23:00,,0830.4,5.00,0.00,29.7,28.4,00.0,38.5,31.6,24.0,0000.0,0006.11,0010.45,0005.28
2022-07-17 11:24:00,,0830.3,4.99,0.00,29.8,28.5,00.0,38.5,31.6,24.1,0000.0,0006.11,0010.54,0005.27
2022-07-17 11:25:00,,0830.4,5.00,0.00,29.8,28.5,00.0,38.6,31.7,24.1,0000.0,0006.11,0010.61,0005.27
2022-07-17 11:26:00,,0830.4,5.00,0.00,29.8,28.6,00.0,38.6,31.7,24.1,0000.0,0006.11,0010.58,0005.26
2022-07-17 11:27:00,,0830.4,5.00,0.00,29.8,28.6,00.0,38.6,31.7,24.1,0000.0,0006.09,0010.66,0005.26
2022-07-17 11:28:00,,0830.4,4.99,0.00,29.8,28.7,00.0,38.6,31.7,24.1,0000.0,0006.07,0011.16,0005.25
2022-07-17 11:29:00,,0830.4,5.00,0.00,29.8,28.7,00.0,38.6,31.8,24.2,0000.0,0006.04,0010.99,0005.26
2022-07-17 11:30:00,,0830.4,5.00,0.00,29.9,28.7,00.0,38.6,31.7,24.0,0000.0,0006.04,0012.18,0005.26
2022-07-17 11:31:00,,0830.4,5.01,0.00,29.9,28.7,00.0,38.6,31.8,23.9,0000.0,0006.03,0012.36,0005.27
2022-07-17 11:32:00,,0830.4,4.99,0.00,29.9,28.8,00.0,38.6,31.8,23.8,0000.0,0006.04,0013.07,0005.28
2022-07-17 11:33:00,,0830.4,5.01,0.00,29.9,28.8,00.0,38.6,31.8,23.7,0000.0,0006.06,0013.62,0005.29
2022-07-17 11:34:00,,0830.4,4.99,0.00,29.9,28.8,00.0,38.7,31.8,23.6,0000.0,0006.10,0013.73,0005.30
2022-07-17 11:35:00,,0830.4,5.01,0.00,29.9,28.8,00.0,38.7,31.8,23.5,0000.0,0006.11,0013.90,0005.31
2022-07-17 11:36:00,,0830.4,5.00,0.00,30.0,28.8,00.0,38.7,31.9,23.4,0000.0,0006.12,0014.09,0005.31
2022-07-17 11:37:00,,0830.4,5.00,0.00,30.0,28.9,00.0,38.7,31.9,23.4,0000.0,0006.11,0014.14,0005.31
2022-07-17 11:38:00,,0830.4,5.01,0.00,30.0,28.9,00.0,38.7,31.9,23.3,0000.0,0006.10,0013.93,0005.31
2022-07-17 11:39:00,,0830.4,4.99,0.00,30.0,28.9,00.0,38.7,31.9,23.3,0000.0,0006.13,0013.41,0005.33
2022-07-17 11:40:00,,0830.4,5.01,0.00,30.0,28.9,00.0,38.7,31.9,23.2,0000.0,0006.13,0013.19,0005.31
2022-07-17 11:41:00,,0830.4,5.01,0.00,30.0,28.9,00.0,38.8,31.9,23.1,0000.0,0006.10,0011.63,0005.30
2022-07-17 11:42:00,,0830.4,5.00,0.00,30.1,28.3,00.0,38.7,31.9,23.2,0000.0,0006.09,0011.37,0005.32
2022-07-17 11:43:00,,0830.5,4.99,0.00,30.0,27.6,00.0,38.6,31.8,23.2,0000.0,0006.09,0010.68,0005.33
2022-07-17 11:44:00,,0830.5,5.02,0.00,30.0,27.4,00.0,38.6,31.6,23.2,0000.0,0006.11,0010.07,0005.35
2022-07-17 11:45:00,,0830.4,4.99,0.00,29.8,27.4,00.0,38.6,31.5,23.4,0000.0,0006.11,0010.38,0005.37
2022-07-17 11:46:00,,0830.4,5.00,0.00,29.8,27.5,00.0,38.6,31.5,23.3,0000.0,0006.13,0010.39,0005.39
2022-07-17 11:47:00,,0830.4,5.00,0.00,29.7,27.6,00.0,38.6,31.4,23.5,0000.0,0006.17,0010.32,0005.42
2022-07-17 11:48:00,,0830.4,5.01,0.00,29.7,27.7,00.0,38.6,31.5,23.6,0000.0,0006.21,0010.55,0005.43
2022-07-17 11:49:00,,0830.5,5.00,0.00,29.7,27.9,00.0,38.6,31.5,23.4,0000.0,0006.23,0010.58,0005.46
2022-07-17 11:50:00,,0830.5,5.01,0.00,29.7,28.0,00.0,38.5,31.5,23.5,0000.0,0006.22,0010.61,0005.46
2022-07-17 11:51:00,,0830.4,4.99,0.00,29.7,28.1,00.0,38.5,31.5,23.4,0000.0,0006.24,0010.70,0005.47
2022-07-17 11:52:00,,0830.4,5.01,0.00,29.7,28.2,00.0,38.5,31.5,23.4,0000.0,0006.26,0010.76,0005.50
2022-07-17 11:53:00,,0830.4,5.00,0.00,29.7,28.3,00.0,38.5,31.5,23.5,0000.0,0006.26,0010.82,0005.48
2022-07-17 11:54:00,,0830.4,5.01,0.00,29.7,28.3,00.0,38.5,31.6,23.5,0000.0,0006.26,0010.76,0005.49
2022-07-17 11:55:00,,0830.5,4.99,0.00,29.7,28.4,00.0,38.5,31.6,23.5,0000.0,0006.26,0011.00,0005.50
2022-07-17 11:56:00,,0830.4,5.01,0.00,29.7,28.4,00.0,38.5,31.6,23.5,0000.0,0006.26,0011.02,0005.49
2022-07-17 11:57:00,,0830.4,5.00,0.00,29.8,28.5,00.0,38.5,31.6,23.4,0000.0,0006.25,0010.74,0005.49
2022-07-17 11:58:00,,0830.4,5.01,0.00,29.8,28.5,00.0,38.6,31.7,23.3,0000.0,0006.20,0010.53,0005.49
2022-07-17 11:59:00,,0830.4,4.99,0.00,29.8,28.6,00.0,38.6,31.7,23.3,0000.0,0006.16,0010.19,0005.49
